Location: Barcelona
(41.3830°N, 2.1830°E)
Time: 00:42:36
(UTC+02:00)

ISS - Pass Details

Date: 21 July 2019
Orbit: 409 x 418 km, 51.6° (Epoch: 22 July)

Event Time Altitude Azimuth Distance (km) Brightness Sun altitude
Rises 23:46:28 0° 289° (WNW) 2,352 0.9 -21.1°
Reaches altitude 10° 23:49:13 10° 314° (NW) 1,488 0.1 -21.4°
Maximum altitude 23:51:16 15° 352° (N) 1,213 -0.6 -21.6°
Drops below altitude 10° 23:53:19 10° 30° (NNE) 1,486 -0.6 -21.8°
Sets 23:56:04 0° 55° (NE) 2,347 0.1 -22.1°
